"Time","Value","Approval","myLocation"
"1992-09-02 12:00",2.8,"Validated","OW317"
"1992-10-06 12:00",3.557,"Validated","OW317"
"1992-11-01 12:00",2.152,"Validated","OW317"
"1992-12-06 12:00",1.382,"Validated","OW317"
"1993-01-06 12:00",1.707,"Validated","OW317"
"1993-02-05 12:00",1.352,"Validated","OW317"
"1993-07-31 12:00",3.114,"Validated","OW317"
"1993-09-02 12:00",2.761,"Validated","OW317"
"1993-10-05 12:00",3.242,"Validated","OW317"
"1993-11-04 12:00",2.552,"Validated","OW317"
"1994-04-05 12:00",3.892,"Validated","OW317"
"1995-01-03 12:00",1.202,"Validated","OW317"
"1995-05-19 12:00",2.417,"Validated","OW317"
"1995-06-02 12:00",2.642,"Validated","OW317"
"1995-07-04 12:00",2.754,"Validated","OW317"
"1995-08-04 12:00",2.972,"Validated","OW317"
"1995-09-05 12:00",3.192,"Validated","OW317"
"1995-10-03 12:00",3.282,"Validated","OW317"
"1995-11-03 12:00",2.462,"Validated","OW317"
"1995-12-08 12:00",1.362,"Validated","OW317"
"1996-01-06 12:00",1.252,"Validated","OW317"
"1996-02-05 12:00",1.252,"Validated","OW317"
"1996-04-17 12:00",1.232,"Validated","OW317"
"2000-07-09 12:00",2.483,"Validated","OW317"
"2000-08-15 12:00",2.753,"Validated","OW317"
"2000-09-30 12:00",3.219,"Validated","OW317"
"2000-11-15 12:00",1.159,"Validated","OW317"
"2001-01-09 12:00",1.302,"Validated","OW317"
"2001-02-08 12:00",1.972,"Validated","OW317"
"2001-03-19 12:00",1.882,"Validated","OW317"
"2001-04-10 12:00",2.085,"Validated","OW317"
"2001-04-24 12:00",1.209,"Validated","OW317"
"2001-05-25 12:00",2.35,"Validated","OW317"
"2001-06-29 12:00",2.39,"Validated","OW317"
"2001-08-07 12:00",2.55,"Validated","OW317"
"2001-09-18 12:00",2.622,"Validated","OW317"
"2001-10-01 12:00",2.64,"Validated","OW317"
"2001-10-18 12:00",1.377,"Validated","OW317"
"2002-01-31 12:00",1.256,"Validated","OW317"
"2002-03-15 12:00",1.257,"Validated","OW317"
"2002-04-30 12:00",2.138,"Validated","OW317"
"2002-05-30 12:00",2.393,"Validated","OW317"
"2002-06-26 12:00",2.668,"Validated","OW317"
"2002-08-01 12:00",2.912,"Validated","OW317"
"2002-08-30 12:00",3.132,"Validated","OW317"
"2002-09-30 12:00",3.46,"Validated","OW317"
"2002-11-05 12:00",3.515,"Validated","OW317"
"2002-12-05 12:00",2.503,"Validated","OW317"
"2002-12-20 12:00",1.904,"Validated","OW317"
"2003-01-21 12:00",1.953,"Validated","OW317"
"2003-02-11 12:00",1.956,"Validated","OW317"
"2003-02-25 12:00",2,"Validated","OW317"
"2003-04-08 12:00",1.681,"Validated","OW317"
"2003-05-07 12:00",2.08,"Validated","OW317"
"2003-05-07 18:00",2.088,"Validated","OW317"
"2003-05-08 00:00",2.098,"Validated","OW317"
"2003-05-08 06:00",2.106,"Validated","OW317"
"2003-05-08 12:00",2.117,"Validated","OW317"
"2003-05-08 18:00",2.119,"Validated","OW317"
"2003-05-09 00:00",2.127,"Validated","OW317"
"2003-05-09 06:00",2.138,"Validated","OW317"
"2003-05-09 12:00",2.15,"Validated","OW317"
"2003-05-09 18:00",2.153,"Validated","OW317"
"2003-05-10 00:00",2.16,"Validated","OW317"
"2003-05-10 06:00",2.168,"Validated","OW317"
"2003-05-10 12:00",2.173,"Validated","OW317"
"2003-05-10 18:00",2.171,"Validated","OW317"
"2003-05-11 00:00",2.171,"Validated","OW317"
"2003-05-11 06:00",2.178,"Validated","OW317"
"2003-05-11 12:00",2.183,"Validated","OW317"
"2003-05-11 18:00",2.181,"Validated","OW317"
"2003-05-12 00:00",2.185,"Validated","OW317"
"2003-05-12 06:00",2.196,"Validated","OW317"
"2003-05-12 12:00",2.206,"Validated","OW317"
"2003-05-12 18:00",2.209,"Validated","OW317"
"2003-05-13 00:00",2.219,"Validated","OW317"
"2003-05-13 06:00",2.225,"Validated","OW317"
"2003-05-13 12:00",2.231,"Validated","OW317"
"2003-05-13 18:00",2.229,"Validated","OW317"
"2003-05-14 00:00",2.224,"Validated","OW317"
"2003-05-14 06:00",2.225,"Validated","OW317"
"2003-05-14 12:00",2.236,"Validated","OW317"
"2003-05-14 18:00",2.249,"Validated","OW317"
"2003-05-15 00:00",2.26,"Validated","OW317"
"2003-05-15 06:00",2.265,"Validated","OW317"
"2003-05-15 12:00",2.266,"Validated","OW317"
"2003-05-15 18:00",2.273,"Validated","OW317"
"2003-05-16 00:00",2.282,"Validated","OW317"
"2003-05-16 06:00",2.29,"Validated","OW317"
"2003-05-16 12:00",2.294,"Validated","OW317"
"2003-05-16 18:00",2.295,"Validated","OW317"
"2003-05-17 00:00",2.294,"Validated","OW317"
"2003-05-17 06:00",2.295,"Validated","OW317"
"2003-05-17 12:00",2.297,"Validated","OW317"
"2003-05-17 18:00",2.297,"Validated","OW317"
"2003-05-18 00:00",2.301,"Validated","OW317"
"2003-05-18 06:00",2.311,"Validated","OW317"
"2003-05-18 12:00",2.318,"Validated","OW317"
"2003-05-18 18:00",2.316,"Validated","OW317"
"2003-05-19 00:00",2.319,"Validated","OW317"
"2003-05-19 06:00",2.322,"Validated","OW317"
"2003-05-19 12:00",2.32,"Validated","OW317"
"2003-05-19 18:00",2.312,"Validated","OW317"
"2003-05-20 00:00",2.308,"Validated","OW317"
"2003-05-20 06:00",2.311,"Validated","OW317"
"2003-05-20 12:00",2.317,"Validated","OW317"
"2003-05-20 18:00",2.323,"Validated","OW317"
"2003-05-21 00:00",2.329,"Validated","OW317"
"2003-05-21 06:00",2.332,"Validated","OW317"
"2003-05-21 12:00",2.335,"Validated","OW317"
"2003-05-21 18:00",2.335,"Validated","OW317"
"2003-05-22 00:00",2.332,"Validated","OW317"
"2003-05-22 06:00",2.332,"Validated","OW317"
"2003-05-22 12:00",2.336,"Validated","OW317"
"2003-05-22 18:00",2.318,"Validated","OW317"
"2003-05-23 00:00",2.304,"Validated","OW317"
"2003-05-23 06:00",2.296,"Validated","OW317"
"2003-05-23 12:00",2.288,"Validated","OW317"
"2003-05-23 18:00",2.275,"Validated","OW317"
"2003-05-24 00:00",2.326,"Validated","OW317"
"2003-05-24 06:00",2.368,"Validated","OW317"
"2003-05-24 12:00",2.332,"Validated","OW317"
"2003-05-24 18:00",2.316,"Validated","OW317"
"2003-05-25 00:00",2.317,"Validated","OW317"
"2003-05-25 06:00",2.325,"Validated","OW317"
"2003-05-25 12:00",2.331,"Validated","OW317"
"2003-05-25 18:00",2.372,"Validated","OW317"
"2003-05-26 00:00",2.42,"Validated","OW317"
"2003-05-26 06:00",2.394,"Validated","OW317"
"2003-05-26 12:00",2.385,"Validated","OW317"
"2003-05-26 18:00",2.38,"Validated","OW317"
"2003-05-27 00:00",2.383,"Validated","OW317"
"2003-05-27 06:00",2.392,"Validated","OW317"
"2003-05-27 12:00",2.395,"Validated","OW317"
"2003-05-27 18:00",2.382,"Validated","OW317"
"2003-05-28 00:00",2.372,"Validated","OW317"
"2003-05-28 06:00",2.373,"Validated","OW317"
"2003-05-28 12:00",2.382,"Validated","OW317"
"2003-05-28 18:00",2.393,"Validated","OW317"
"2003-05-29 00:00",2.405,"Validated","OW317"
"2003-05-29 06:00",2.409,"Validated","OW317"
"2003-05-29 12:00",2.409,"Validated","OW317"
"2003-05-29 18:00",2.401,"Validated","OW317"
"2003-05-30 00:00",2.396,"Validated","OW317"
"2003-05-30 06:00",2.399,"Validated","OW317"
"2003-05-30 12:00",2.404,"Validated","OW317"
"2003-05-30 18:00",2.413,"Validated","OW317"
"2003-05-31 00:00",2.424,"Validated","OW317"
"2003-05-31 06:00",2.434,"Validated","OW317"
"2003-05-31 12:00",2.445,"Validated","OW317"
"2003-05-31 18:00",2.445,"Validated","OW317"
"2003-06-01 00:00",2.442,"Validated","OW317"
"2003-06-01 06:00",2.446,"Validated","OW317"
"2003-06-01 12:00",2.448,"Validated","OW317"
"2003-06-01 18:00",2.45,"Validated","OW317"
"2003-06-02 00:00",2.453,"Validated","OW317"
"2003-06-02 06:00",2.461,"Validated","OW317"
"2003-06-02 12:00",2.469,"Validated","OW317"
"2003-06-02 18:00",2.471,"Validated","OW317"
"2003-06-03 00:00",2.466,"Validated","OW317"
"2003-06-03 06:00",2.471,"Validated","OW317"
"2003-06-03 12:00",2.475,"Validated","OW317"
"2003-06-03 18:00",2.474,"Validated","OW317"
"2003-06-04 00:00",2.474,"Validated","OW317"
"2003-06-04 06:00",2.481,"Validated","OW317"
"2003-06-04 12:00",2.488,"Validated","OW317"
"2003-06-04 18:00",2.483,"Validated","OW317"
"2003-06-05 00:00",2.477,"Validated","OW317"
"2003-06-05 06:00",2.482,"Validated","OW317"
"2003-06-05 12:00",2.485,"Validated","OW317"
"2003-06-05 18:00",2.482,"Validated","OW317"
"2003-06-06 00:00",2.478,"Validated","OW317"
"2003-06-06 06:00",2.491,"Validated","OW317"
"2003-06-06 12:00",2.498,"Validated","OW317"
"2003-06-06 18:00",2.495,"Validated","OW317"
"2003-06-07 00:00",2.496,"Validated","OW317"
"2003-06-07 06:00",2.503,"Validated","OW317"
"2003-06-07 12:00",2.506,"Validated","OW317"
"2003-06-07 18:00",2.504,"Validated","OW317"
"2003-06-08 00:00",2.509,"Validated","OW317"
"2003-06-08 06:00",2.515,"Validated","OW317"
"2003-06-08 12:00",2.52,"Validated","OW317"
"2003-06-08 18:00",2.521,"Validated","OW317"
"2003-06-09 00:00",2.525,"Validated","OW317"
"2003-06-09 06:00",2.536,"Validated","OW317"
"2003-06-09 12:00",2.542,"Validated","OW317"
"2003-06-09 18:00",2.542,"Validated","OW317"
"2003-06-10 00:00",2.547,"Validated","OW317"
"2003-06-10 06:00",2.557,"Validated","OW317"
"2003-06-10 12:00",2.569,"Validated","OW317"
"2003-06-10 18:00",2.571,"Validated","OW317"
"2003-06-11 00:00",2.574,"Validated","OW317"
"2003-06-11 06:00",2.58,"Validated","OW317"
"2003-06-11 12:00",2.584,"Validated","OW317"
"2003-06-11 18:00",2.583,"Validated","OW317"
"2003-06-12 00:00",2.581,"Validated","OW317"
"2003-06-12 06:00",2.578,"Validated","OW317"
"2003-06-12 12:00",2.577,"Validated","OW317"
"2003-06-12 18:00",2.585,"Validated","OW317"
"2003-06-13 00:00",2.585,"Validated","OW317"
"2003-06-13 06:00",2.583,"Validated","OW317"
"2003-06-13 12:00",2.594,"Validated","OW317"
"2003-06-13 18:00",2.601,"Validated","OW317"
"2003-06-14 00:00",2.605,"Validated","OW317"
"2003-06-14 06:00",2.608,"Validated","OW317"
"2003-06-14 12:00",2.613,"Validated","OW317"
"2003-06-14 18:00",2.617,"Validated","OW317"
"2003-06-15 00:00",2.615,"Validated","OW317"
"2003-06-15 06:00",2.615,"Validated","OW317"
"2003-06-15 12:00",2.616,"Validated","OW317"
"2003-06-15 18:00",2.615,"Validated","OW317"
"2003-06-16 00:00",2.612,"Validated","OW317"
"2003-06-16 06:00",2.615,"Validated","OW317"
"2003-06-16 12:00",2.617,"Validated","OW317"
"2003-06-16 18:00",2.62,"Validated","OW317"
"2003-06-17 00:00",2.618,"Validated","OW317"
"2003-06-17 06:00",2.618,"Validated","OW317"
"2003-06-17 12:00",2.613,"Validated","OW317"
"2003-06-17 18:00",2.608,"Validated","OW317"
"2003-06-18 00:00",2.607,"Validated","OW317"
"2003-06-18 06:00",2.618,"Validated","OW317"
"2003-06-18 12:00",2.624,"Validated","OW317"
"2003-06-18 18:00",2.627,"Validated","OW317"
"2003-06-19 00:00",2.632,"Validated","OW317"
"2003-06-19 06:00",2.636,"Validated","OW317"
"2003-06-19 12:00",2.636,"Validated","OW317"
"2003-06-19 18:00",2.636,"Validated","OW317"
"2003-06-20 00:00",2.64,"Validated","OW317"
"2003-06-20 06:00",2.645,"Validated","OW317"
"2003-06-20 12:00",2.646,"Validated","OW317"
"2003-06-20 18:00",2.647,"Validated","OW317"
"2003-06-21 00:00",2.649,"Validated","OW317"
"2003-06-21 06:00",2.649,"Validated","OW317"
"2003-06-21 12:00",2.652,"Validated","OW317"
"2003-06-21 18:00",2.656,"Validated","OW317"
"2003-06-22 00:00",2.666,"Validated","OW317"
"2003-06-22 06:00",2.666,"Validated","OW317"
"2003-06-22 12:00",2.667,"Validated","OW317"
"2003-06-22 18:00",2.669,"Validated","OW317"
"2003-06-23 00:00",2.672,"Validated","OW317"
"2003-06-23 06:00",2.676,"Validated","OW317"
"2003-06-23 12:00",2.682,"Validated","OW317"
"2003-06-23 18:00",2.685,"Validated","OW317"
"2003-06-24 00:00",2.69,"Validated","OW317"
"2003-06-24 06:00",2.695,"Validated","OW317"
"2003-06-24 12:00",2.702,"Validated","OW317"
"2003-06-24 18:00",2.697,"Validated","OW317"
"2003-06-25 00:00",2.695,"Validated","OW317"
"2003-06-25 06:00",2.7,"Validated","OW317"
"2003-06-25 12:00",2.703,"Validated","OW317"
"2003-06-25 18:00",2.703,"Validated","OW317"
"2003-06-26 00:00",2.702,"Validated","OW317"
"2003-06-26 06:00",2.706,"Validated","OW317"
"2003-06-26 12:00",2.704,"Validated","OW317"
"2003-06-26 18:00",2.696,"Validated","OW317"
"2003-06-27 00:00",2.691,"Validated","OW317"
"2003-06-27 06:00",2.7,"Validated","OW317"
"2003-06-27 12:00",2.706,"Validated","OW317"
"2003-06-27 18:00",2.708,"Validated","OW317"
"2003-06-28 00:00",2.711,"Validated","OW317"
"2003-06-28 06:00",2.723,"Validated","OW317"
"2003-06-28 12:00",2.724,"Validated","OW317"
"2003-06-28 18:00",2.716,"Validated","OW317"
"2003-06-29 00:00",2.713,"Validated","OW317"
"2003-06-29 06:00",2.711,"Validated","OW317"
"2003-06-29 12:00",2.709,"Validated","OW317"
"2003-06-29 18:00",2.715,"Validated","OW317"
"2003-06-30 00:00",2.729,"Validated","OW317"
"2003-06-30 06:00",2.742,"Validated","OW317"
"2003-06-30 12:00",2.756,"Validated","OW317"
"2003-06-30 18:00",2.762,"Validated","OW317"
"2003-07-01 00:00",2.761,"Validated","OW317"
"2003-07-01 06:00",2.762,"Validated","OW317"
"2003-07-01 12:00",2.759,"Validated","OW317"
"2003-07-01 18:00",2.778,"Validated","OW317"
"2003-07-02 00:00",2.782,"Validated","OW317"
"2003-07-02 06:00",2.774,"Validated","OW317"
"2003-07-02 12:00",2.773,"Validated","OW317"
"2003-07-02 18:00",2.773,"Validated","OW317"
"2003-07-03 00:00",2.768,"Validated","OW317"
"2003-07-03 06:00",2.769,"Validated","OW317"
"2003-07-03 12:00",2.773,"Validated","OW317"
"2003-07-03 18:00",2.777,"Validated","OW317"
"2003-07-04 00:00",2.777,"Validated","OW317"
"2003-07-04 06:00",2.777,"Validated","OW317"
"2003-07-04 12:00",2.783,"Validated","OW317"
"2003-07-04 18:00",2.784,"Validated","OW317"
"2003-07-05 00:00",2.788,"Validated","OW317"
"2003-07-05 06:00",2.795,"Validated","OW317"
"2003-07-05 12:00",2.8,"Validated","OW317"
"2003-07-05 18:00",2.807,"Validated","OW317"
"2003-07-06 00:00",2.816,"Validated","OW317"
"2003-07-06 06:00",2.815,"Validated","OW317"
"2003-07-06 12:00",2.82,"Validated","OW317"
"2003-07-06 18:00",2.815,"Validated","OW317"
"2003-07-07 00:00",2.807,"Validated","OW317"
"2003-07-07 06:00",2.811,"Validated","OW317"
"2003-07-07 12:00",2.81,"Validated","OW317"
"2003-07-07 18:00",2.813,"Validated","OW317"
"2003-07-08 00:00",2.824,"Validated","OW317"
"2003-07-08 06:00",2.836,"Validated","OW317"
"2003-07-08 12:00",2.852,"Validated","OW317"
"2003-07-08 18:00",2.861,"Validated","OW317"
"2003-07-09 00:00",2.857,"Validated","OW317"
"2003-07-09 06:00",2.853,"Validated","OW317"
"2003-07-09 12:00",2.853,"Validated","OW317"
"2003-07-09 18:00",2.846,"Validated","OW317"
"2003-07-10 00:00",2.843,"Validated","OW317"
"2003-07-10 06:00",2.849,"Validated","OW317"
"2003-07-10 12:00",2.854,"Validated","OW317"
"2003-07-10 18:00",2.852,"Validated","OW317"
"2003-07-11 00:00",2.853,"Validated","OW317"
"2003-07-11 06:00",2.865,"Validated","OW317"
"2003-07-11 12:00",2.87,"Validated","OW317"
"2003-07-11 18:00",2.869,"Validated","OW317"
"2003-07-12 00:00",2.868,"Validated","OW317"
"2003-07-12 06:00",2.87,"Validated","OW317"
"2003-07-12 12:00",2.876,"Validated","OW317"
"2003-07-12 18:00",2.881,"Validated","OW317"
"2003-07-13 00:00",2.883,"Validated","OW317"
"2003-07-13 06:00",2.886,"Validated","OW317"
"2003-07-13 12:00",2.894,"Validated","OW317"
"2003-07-13 18:00",2.899,"Validated","OW317"
"2003-07-14 00:00",2.897,"Validated","OW317"
"2003-07-14 06:00",2.891,"Validated","OW317"
"2003-07-14 12:00",2.887,"Validated","OW317"
"2003-07-14 18:00",2.884,"Validated","OW317"
"2003-07-15 00:00",2.873,"Validated","OW317"
"2003-07-15 06:00",2.87,"Validated","OW317"
"2003-07-15 12:00",2.87,"Validated","OW317"
"2003-07-15 18:00",2.871,"Validated","OW317"
"2003-07-16 00:00",2.871,"Validated","OW317"
"2003-07-16 06:00",2.877,"Validated","OW317"
"2003-07-16 12:00",2.898,"Validated","OW317"
"2003-07-16 18:00",2.906,"Validated","OW317"
"2003-07-17 00:00",2.905,"Validated","OW317"
"2003-07-17 06:00",2.91,"Validated","OW317"
"2003-07-17 12:00",2.912,"Validated","OW317"
"2003-07-17 18:00",2.908,"Validated","OW317"
"2003-07-18 00:00",2.905,"Validated","OW317"
"2003-07-18 06:00",2.913,"Validated","OW317"
"2003-07-18 12:00",2.928,"Validated","OW317"
"2003-07-18 18:00",2.923,"Validated","OW317"
"2003-07-19 00:00",2.922,"Validated","OW317"
"2003-07-19 06:00",2.933,"Validated","OW317"
"2003-07-19 12:00",2.931,"Validated","OW317"
"2003-07-19 18:00",2.927,"Validated","OW317"
"2003-07-20 00:00",2.927,"Validated","OW317"
"2003-07-20 06:00",2.935,"Validated","OW317"
"2003-07-20 12:00",2.947,"Validated","OW317"
"2003-07-20 18:00",2.954,"Validated","OW317"
"2003-07-21 00:00",2.947,"Validated","OW317"
"2003-07-21 06:00",2.947,"Validated","OW317"
"2003-07-21 12:00",2.948,"Validated","OW317"
"2003-07-21 18:00",2.944,"Validated","OW317"
"2003-07-22 00:00",2.952,"Validated","OW317"
"2003-07-22 06:00",2.965,"Validated","OW317"
"2003-07-22 12:00",2.971,"Validated","OW317"
"2003-07-22 18:00",2.968,"Validated","OW317"
"2003-07-23 00:00",2.974,"Validated","OW317"
"2003-07-23 06:00",2.989,"Validated","OW317"
"2003-07-23 12:00",2.994,"Validated","OW317"
"2003-07-23 18:00",2.99,"Validated","OW317"
"2003-07-24 00:00",2.989,"Validated","OW317"
"2003-07-24 06:00",2.996,"Validated","OW317"
"2003-07-24 12:00",3.004,"Validated","OW317"
"2003-07-24 18:00",2.998,"Validated","OW317"
"2003-07-25 00:00",3.002,"Validated","OW317"
"2003-07-25 06:00",3.006,"Validated","OW317"
"2003-07-25 12:00",3.009,"Validated","OW317"
"2003-07-25 18:00",3.005,"Validated","OW317"
"2003-07-26 00:00",3.012,"Validated","OW317"
"2003-07-26 06:00",3.022,"Validated","OW317"
"2003-07-26 12:00",3.035,"Validated","OW317"
"2003-07-26 18:00",3.036,"Validated","OW317"
"2003-07-27 00:00",3.038,"Validated","OW317"
"2003-07-27 06:00",3.043,"Validated","OW317"
"2003-07-27 12:00",3.047,"Validated","OW317"
"2003-07-27 18:00",3.044,"Validated","OW317"
"2003-07-28 00:00",3.038,"Validated","OW317"
"2003-07-28 06:00",3.043,"Validated","OW317"
"2003-07-28 12:00",3.052,"Validated","OW317"
"2003-07-28 18:00",3.049,"Validated","OW317"
"2003-07-29 00:00",3.051,"Validated","OW317"
"2003-07-29 06:00",3.067,"Validated","OW317"
"2003-07-29 12:00",3.07,"Validated","OW317"
"2003-07-29 18:00",3.071,"Validated","OW317"
"2003-07-30 00:00",3.068,"Validated","OW317"
"2003-07-30 06:00",3.073,"Validated","OW317"
"2003-07-30 12:00",3.079,"Validated","OW317"
"2003-07-30 18:00",3.14,"Validated","OW317"
"2003-07-31 00:00",3.175,"Validated","OW317"
"2003-07-31 06:00",3.157,"Validated","OW317"
"2003-07-31 12:00",3.149,"Validated","OW317"
"2003-07-31 18:00",3.141,"Validated","OW317"
"2003-08-01 00:00",3.138,"Validated","OW317"
"2003-08-01 06:00",3.147,"Validated","OW317"
"2003-08-01 12:00",3.152,"Validated","OW317"
"2003-08-01 18:00",3.149,"Validated","OW317"
"2003-08-02 00:00",3.151,"Validated","OW317"
"2003-08-02 06:00",3.157,"Validated","OW317"
"2003-08-02 12:00",3.159,"Validated","OW317"
"2003-08-02 18:00",3.157,"Validated","OW317"
"2003-08-03 00:00",3.158,"Validated","OW317"
"2003-08-03 06:00",3.164,"Validated","OW317"
"2003-08-03 12:00",3.168,"Validated","OW317"
"2003-08-03 18:00",3.17,"Validated","OW317"
"2003-08-04 00:00",3.175,"Validated","OW317"
"2003-08-04 06:00",3.183,"Validated","OW317"
"2003-08-04 12:00",3.186,"Validated","OW317"
"2003-08-04 18:00",3.189,"Validated","OW317"
"2003-08-05 00:00",3.194,"Validated","OW317"
"2003-08-05 06:00",3.199,"Validated","OW317"
"2003-08-05 12:00",3.202,"Validated","OW317"
"2003-08-05 18:00",3.197,"Validated","OW317"
"2003-08-06 00:00",3.209,"Validated","OW317"
"2003-08-06 06:00",3.225,"Validated","OW317"
"2003-08-06 12:00",3.23,"Validated","OW317"
"2003-08-06 18:00",3.229,"Validated","OW317"
"2003-08-07 00:00",3.229,"Validated","OW317"
"2003-08-07 06:00",3.233,"Validated","OW317"
"2003-08-07 12:00",3.239,"Validated","OW317"
"2003-08-07 18:00",3.235,"Validated","OW317"
"2003-08-08 00:00",3.238,"Validated","OW317"
"2003-08-08 06:00",3.249,"Validated","OW317"
"2003-08-08 12:00",3.255,"Validated","OW317"
"2003-08-08 18:00",3.257,"Validated","OW317"
"2003-08-09 00:00",3.26,"Validated","OW317"
"2003-08-09 06:00",3.266,"Validated","OW317"
"2003-08-09 12:00",3.278,"Validated","OW317"
"2003-08-09 18:00",3.288,"Validated","OW317"
"2003-08-10 00:00",3.3,"Validated","OW317"
"2003-08-10 06:00",3.303,"Validated","OW317"
"2003-08-10 12:00",3.305,"Validated","OW317"
"2003-08-10 18:00",3.306,"Validated","OW317"
"2003-08-11 00:00",3.305,"Validated","OW317"
"2003-08-11 06:00",3.306,"Validated","OW317"
"2003-08-11 12:00",3.313,"Validated","OW317"
"2003-08-11 18:00",3.315,"Validated","OW317"
"2003-08-12 00:00",3.318,"Validated","OW317"
"2003-08-12 06:00",3.321,"Validated","OW317"
"2003-08-12 12:00",3.327,"Validated","OW317"
"2003-08-12 18:00",3.33,"Validated","OW317"
"2003-08-13 00:00",3.331,"Validated","OW317"
"2003-08-13 06:00",3.334,"Validated","OW317"
"2003-08-13 12:00",3.341,"Validated","OW317"
"2003-08-13 18:00",3.344,"Validated","OW317"
"2003-08-14 00:00",3.342,"Validated","OW317"
"2003-08-14 06:00",3.35,"Validated","OW317"
"2003-08-14 12:00",3.356,"Validated","OW317"
"2003-08-14 18:00",3.353,"Validated","OW317"
"2003-08-15 00:00",3.353,"Validated","OW317"
"2003-08-15 06:00",3.359,"Validated","OW317"
"2003-08-15 12:00",3.361,"Validated","OW317"
"2003-08-15 18:00",3.358,"Validated","OW317"
"2003-08-16 00:00",3.356,"Validated","OW317"
"2003-08-16 06:00",3.353,"Validated","OW317"
"2003-08-16 12:00",3.351,"Validated","OW317"
"2003-08-16 18:00",3.35,"Validated","OW317"
"2003-08-17 00:00",3.347,"Validated","OW317"
"2003-08-17 06:00",3.349,"Validated","OW317"
"2003-08-17 12:00",3.351,"Validated","OW317"
"2003-08-17 18:00",3.352,"Validated","OW317"
"2003-08-18 00:00",3.355,"Validated","OW317"
"2003-08-18 06:00",3.363,"Validated","OW317"
"2003-08-18 12:00",3.368,"Validated","OW317"
"2003-08-18 18:00",3.369,"Validated","OW317"
"2003-08-19 00:00",3.373,"Validated","OW317"
"2003-08-19 06:00",3.381,"Validated","OW317"
"2003-08-19 12:00",3.387,"Validated","OW317"
"2003-08-19 18:00",3.389,"Validated","OW317"
"2003-08-20 00:00",3.391,"Validated","OW317"
"2003-08-20 06:00",3.396,"Validated","OW317"
"2003-08-20 12:00",3.401,"Validated","OW317"
"2003-08-20 18:00",3.4,"Validated","OW317"
"2003-08-21 00:00",3.4,"Validated","OW317"
"2003-08-21 06:00",3.404,"Validated","OW317"
"2003-08-21 12:00",3.408,"Validated","OW317"
"2003-08-21 18:00",3.408,"Validated","OW317"
"2003-08-22 00:00",3.411,"Validated","OW317"
"2003-08-22 06:00",3.418,"Validated","OW317"
"2003-08-22 12:00",3.426,"Validated","OW317"
"2003-08-22 18:00",3.427,"Validated","OW317"
"2003-08-23 00:00",3.431,"Validated","OW317"
"2003-08-23 06:00",3.436,"Validated","OW317"
"2003-08-23 12:00",3.443,"Validated","OW317"
"2003-08-23 18:00",3.441,"Validated","OW317"
"2003-08-24 00:00",3.443,"Validated","OW317"
"2003-08-24 06:00",3.447,"Validated","OW317"
"2003-08-24 12:00",3.452,"Validated","OW317"
"2003-08-24 18:00",3.456,"Validated","OW317"
"2003-08-25 00:00",3.463,"Validated","OW317"
"2003-08-25 06:00",3.472,"Validated","OW317"
"2003-08-25 12:00",3.48,"Validated","OW317"
"2003-08-25 18:00",3.484,"Validated","OW317"
"2003-08-26 00:00",3.491,"Validated","OW317"
"2003-08-26 06:00",3.497,"Validated","OW317"
"2003-08-26 12:00",3.502,"Validated","OW317"
"2003-08-26 18:00",3.507,"Validated","OW317"
"2003-08-27 00:00",3.511,"Validated","OW317"
"2003-08-27 06:00",3.515,"Validated","OW317"
"2003-08-27 12:00",3.52,"Validated","OW317"
"2003-08-27 18:00",3.523,"Validated","OW317"
"2003-08-28 00:00",3.526,"Validated","OW317"
"2003-08-28 06:00",3.53,"Validated","OW317"
"2003-08-28 12:00",3.531,"Validated","OW317"
"2003-08-28 18:00",3.532,"Validated","OW317"
"2003-08-29 00:00",3.534,"Validated","OW317"
"2003-08-29 06:00",3.54,"Validated","OW317"
"2003-08-29 12:00",3.542,"Validated","OW317"
"2003-08-29 18:00",3.543,"Validated","OW317"
"2003-08-30 00:00",3.544,"Validated","OW317"
"2003-08-30 06:00",3.549,"Validated","OW317"
"2003-08-30 12:00",3.549,"Validated","OW317"
"2003-08-30 18:00",3.551,"Validated","OW317"
"2003-08-31 00:00",3.555,"Validated","OW317"
"2003-08-31 06:00",3.56,"Validated","OW317"
"2003-08-31 12:00",3.563,"Validated","OW317"
"2003-08-31 18:00",3.564,"Validated","OW317"
"2003-09-01 00:00",3.567,"Validated","OW317"
"2003-09-01 06:00",3.572,"Validated","OW317"
"2003-09-01 12:00",3.575,"Validated","OW317"